Peawanuck, Ontario

6:36 AM EDT on October 22, 2017 (GMT -0400)
Peawanuck

Weather History for CWWN - June, 2013

Change the Weather History Date:

Saturday, June 1, 2013

  Actual Average Record
Temperature  
Mean Temperature 34 °F -  
Max Temperature 39 °F - - ()
Min Temperature 29 °F - - ()
Degree Days  
Heating Degree Days 31    
Moisture  
Dew Point 30 °F    
Average Humidity 89    
Maximum Humidity 100    
Minimum Humidity 74    
Precipitation  
Precipitation 0.00 in - - ()
Sea Level Pressure  
Sea Level Pressure 30.06 in    
Wind  
Wind Speed 8 mph ()    
Max Wind Speed 12 mph    
Max Gust Speed -    
T = Trace of Precipitation, MM = Missing Value Source: Averaged Metar Reports

Daily Weather History Graph

Daily Weather History Graph

Search for Another Location

Airport or City:

Trip Planner

Search our weather history database for the weather conditions in past years. The results will help you decide how hot, cold, wet, or windy it might be!

Date:

Astronomy

Jun. 01, 2013 Rise Set
Actual Time 5:10 AM EDT 10:09 PM EDT
Civil Twilight 4:16 AM EDT 11:04 PM EDT
Nautical Twilight 2:35 AM EDT 12:47 AM EDT
Astronomical Twilight Sun does not rise Sun does not rise
Moon 2:12 AM EDT (6/1) 2:36 PM EDT (6/1)
Length of Visible Light 18h 48m
Length of Day
16h 59m
Last Quarter, 41% of the Moon is Illuminated
Jun 1
Last Quarter
Jun 8
New
Jun 16
First Quarter
Jun 23
Full
Jun 30
Last Quarter

Hourly Weather History & Observations

Time (EDT) Temp. Windchill Dew Point Humidity Pressure Visibility Wind Dir Wind Speed Gust Speed Precip Events Conditions
12:00 AM 32.0 °F 26.4 °F 32.0 °F 100% 30.10 in - NNE 5.8 mph - N/A   Unknown
1:00 AM 30.2 °F 22.6 °F 30.2 °F 100% 30.08 in - North 8.1 mph - N/A   Unknown
2:00 AM 30 °F - 29 °F 97% 30.08 in - North 8.1 mph - -  
2:00 AM 30.2 °F 22.6 °F 30.2 °F 100% 30.08 in - North 8.1 mph - N/A   Unknown
3:00 AM 30.2 °F 22.6 °F 30.2 °F 100% 30.08 in - ENE 8.1 mph - N/A   Unknown
4:00 AM 30.2 °F 24.3 °F 30.2 °F 100% 30.07 in - NE 5.8 mph - N/A   Unknown
5:00 AM 30.2 °F 22.6 °F 28.4 °F 93% 30.06 in - NE 8.1 mph - N/A   Unknown
6:00 AM 30.2 °F 22.6 °F 28.4 °F 93% 30.07 in - NE 8.1 mph - N/A   Unknown
7:00 AM 28.4 °F 21.2 °F 28.4 °F 100% 30.08 in - North 6.9 mph - N/A   Unknown
8:00 AM 30 °F - 29 °F 92% 30.07 in - NNE 9.2 mph - -  
8:00 AM 30.2 °F 21.9 °F 28.4 °F 93% 30.07 in - NNE 9.2 mph - N/A   Unknown
9:00 AM 30.2 °F 21.3 °F 28.4 °F 93% 30.07 in - NNE 10.4 mph - N/A   Unknown
10:00 AM 32.0 °F 24.2 °F 30.2 °F 93% 30.06 in - North 9.2 mph - N/A   Unknown
11:00 AM 33.8 °F 26.4 °F 32.0 °F 93% 30.06 in - North 9.2 mph - N/A   Unknown
12:00 PM 33.8 °F 25.3 °F 30.2 °F 87% 30.06 in - North 11.5 mph - N/A   Unknown
1:00 PM 35.6 °F 27.5 °F 32.0 °F 87% 30.06 in - North 11.5 mph - N/A   Unknown
2:00 PM 37 °F - 32 °F 74% 30.05 in - North 10.4 mph - -  
2:00 PM 37.4 °F 30.3 °F 32.0 °F 81% 30.05 in - North 10.4 mph - N/A   Unknown
3:00 PM 37.4 °F 29.8 °F 32.0 °F 81% 30.05 in - North 11.5 mph - N/A   Unknown
4:00 PM 39.2 °F 32.5 °F 33.8 °F 81% 30.04 in - NNE 10.4 mph - N/A   Unknown
5:00 PM 37.4 °F 29.8 °F 32.0 °F 81% 30.04 in - NNE 11.5 mph - N/A   Unknown
6:00 PM 37.4 °F 29.8 °F 32.0 °F 81% 30.04 in - NNE 11.5 mph - N/A   Unknown
7:00 PM 35.6 °F 27.5 °F 30.2 °F 81% 30.05 in - NNE 11.5 mph - N/A   Unknown
8:00 PM 35 °F - 30 °F 75% 30.06 in - NNE 10.4 mph - -  
8:00 PM 35.6 °F 28.0 °F 30.2 °F 81% 30.06 in - NNE 10.4 mph - N/A   Unknown
9:00 PM 33.8 °F 25.3 °F 28.4 °F 81% 30.06 in - North 11.5 mph - N/A   Unknown
10:00 PM 32.0 °F 23.6 °F 28.4 °F 87% 30.06 in - North 10.4 mph - N/A   Unknown
11:00 PM 32.0 °F 23.6 °F 28.4 °F 87% 30.06 in - North 10.4 mph - N/A   Unknown